AFR71NJ LFBO-LFPG

Flight info

Callsign AFR71NJ
Flight time 1h 2m
Altitude 30000
Route FISTO DCT POI DCT PEPAX UT182 NIMER/N0391F260 UT182 KEPER
Aircraft A320/M-SDE2E3FGIJ1RWY/HB1

Departure

Time 2026-05-08 16:04
Airport Toulouse-Blagnac Airport (LFBO)

Arrival

Time 2026-05-08 17:07
Airport Charles de Gaulle International Airport (LFPG)
Time Latitude Longitude Altitude Speed Heading
2026-05-08 15:21 43.63128 1.37113 494 ft 0 kts 28°
2026-05-08 15:55 43.63119 1.37107 478 ft 4 kts 28°
2026-05-08 15:56 43.63096 1.37089 486 ft 4 kts 28°
2026-05-08 15:56 43.63076 1.37075 485 ft 2 kts 28°
2026-05-08 15:56 43.63052 1.37061 487 ft 4 kts
2026-05-08 15:56 43.63030 1.37067 488 ft 4 kts 307°
2026-05-08 15:57 43.63022 1.37097 487 ft 3 kts 281°
2026-05-08 15:57 43.63021 1.37102 487 ft 0 kts 281°
2026-05-08 15:59 43.63020 1.37083 483 ft 4 kts 255°
2026-05-08 15:59 43.62993 1.37032 493 ft 7 kts 232°
2026-05-08 15:59 43.62962 1.36978 488 ft 7 kts 232°
2026-05-08 15:59 43.62952 1.36895 494 ft 12 kts 292°
2026-05-08 16:00 43.63033 1.36805 488 ft 16 kts 322°
2026-05-08 16:00 43.63120 1.36714 494 ft 15 kts 323°
2026-05-08 16:00 43.63202 1.36629 494 ft 14 kts 323°
2026-05-08 16:00 43.63279 1.36550 489 ft 14 kts 323°
2026-05-08 16:01 43.63372 1.36455 494 ft 17 kts 323°
2026-05-08 16:01 43.63463 1.36360 489 ft 16 kts 322°
2026-05-08 16:01 43.63547 1.36272 491 ft 15 kts 323°
2026-05-08 16:01 43.63625 1.36191 484 ft 14 kts 323°
2026-05-08 16:02 43.63697 1.36116 485 ft 13 kts 323°
2026-05-08 16:02 43.63765 1.36045 494 ft 12 kts 323°
2026-05-08 16:02 43.63821 1.35971 492 ft 11 kts 290°
2026-05-08 16:02 43.63792 1.35890 488 ft 9 kts 233°
2026-05-08 16:03 43.63755 1.35822 489 ft 9 kts 233°
2026-05-08 16:03 43.63713 1.35786 490 ft 7 kts 166°
2026-05-08 16:03 43.63671 1.35830 486 ft 12 kts 141°
2026-05-08 16:03 43.63429 1.36083 490 ft 82 kts 142°
2026-05-08 16:04 43.62793 1.36747 495 ft 145 kts 143°
2026-05-08 16:04 43.61912 1.37640 958 ft 160 kts 140°
2026-05-08 16:04 43.61016 1.38570 1742 ft 162 kts 141°
2026-05-08 16:04 43.60117 1.39505 2470 ft 162 kts 141°
2026-05-08 16:05 43.59210 1.40436 3197 ft 163 kts 144°
2026-05-08 16:05 43.58271 1.41312 3894 ft 166 kts 146°
2026-05-08 16:05 43.57248 1.42250 4322 ft 186 kts 146°
2026-05-08 16:05 43.56028 1.43083 4705 ft 210 kts 165°
2026-05-08 16:06 43.55026 1.43237 4969 ft 228 kts 181°
2026-05-08 16:06 43.53409 1.42675 5444 ft 255 kts 206°
2026-05-08 16:06 43.52005 1.41077 6142 ft 272 kts 232°
2026-05-08 16:06 43.51269 1.38666 6996 ft 279 kts 262°
2026-05-08 16:07 43.51466 1.36008 7942 ft 284 kts 290°
2026-05-08 16:07 43.52597 1.33781 8887 ft 291 kts 319°
2026-05-08 16:07 43.54428 1.32599 9836 ft 297 kts 349°
2026-05-08 16:07 43.56495 1.32309 10704 ft 300 kts 355°
2026-05-08 16:08 43.58596 1.32076 11498 ft 306 kts 354°
2026-05-08 16:08 43.60744 1.31836 12241 ft 313 kts 355°
2026-05-08 16:08 43.62929 1.31591 13073 ft 317 kts 355°
2026-05-08 16:08 43.65141 1.31335 13923 ft 320 kts 355°
2026-05-08 16:09 43.67374 1.31068 14621 ft 325 kts 355°
2026-05-08 16:09 43.69640 1.30798 15341 ft 329 kts 355°
2026-05-08 16:09 43.71936 1.30547 16032 ft 335 kts 355°
2026-05-08 16:09 43.74340 1.30299 16262 ft 356 kts 356°
2026-05-08 16:10 43.76846 1.30049 16821 ft 364 kts 356°
2026-05-08 16:10 43.79392 1.29796 17490 ft 370 kts 356°
2026-05-08 16:10 43.81976 1.29535 18155 ft 375 kts 355°
2026-05-08 16:10 43.84592 1.29265 18753 ft 379 kts 355°
2026-05-08 16:11 43.87238 1.28985 19368 ft 383 kts 355°
2026-05-08 16:11 43.89903 1.28700 19986 ft 386 kts 355°
2026-05-08 16:11 43.92594 1.28413 20602 ft 389 kts 354°
2026-05-08 16:11 43.95299 1.28124 21200 ft 392 kts 354°
2026-05-08 16:12 43.98038 1.27835 21824 ft 396 kts 354°
2026-05-08 16:12 44.00796 1.27544 22430 ft 399 kts 354°
2026-05-08 16:12 44.03576 1.27251 23014 ft 403 kts 354°
2026-05-08 16:12 44.06361 1.26962 23507 ft 409 kts 354°
2026-05-08 16:13 44.09251 1.26659 23987 ft 413 kts 354°
2026-05-08 16:13 44.12131 1.26357 24503 ft 416 kts 354°
2026-05-08 16:13 44.15033 1.26053 25024 ft 419 kts 354°
2026-05-08 16:13 44.17946 1.25744 25543 ft 421 kts 354°
2026-05-08 16:14 44.20878 1.25426 26044 ft 423 kts 354°
2026-05-08 16:14 44.23822 1.25105 26536 ft 426 kts 355°
2026-05-08 16:14 44.26784 1.24782 26978 ft 430 kts 355°
2026-05-08 16:14 44.29795 1.24457 27181 ft 439 kts 355°
2026-05-08 16:15 44.32850 1.24134 27519 ft 443 kts 355°
2026-05-08 16:15 44.35933 1.23809 27930 ft 446 kts 355°
2026-05-08 16:15 44.39037 1.23483 28341 ft 449 kts 355°
2026-05-08 16:15 44.42124 1.23156 28732 ft 451 kts 355°
2026-05-08 16:16 44.45308 1.22748 29047 ft 456 kts 350°
2026-05-08 16:16 44.48409 1.21790 29375 ft 458 kts 341°
2026-05-08 16:16 44.51425 1.20507 29732 ft 460 kts 341°
2026-05-08 16:16 44.54497 1.19198 30078 ft 463 kts 341°
2026-05-08 16:17 44.57591 1.17882 30386 ft 466 kts 341°
2026-05-08 16:17 44.60698 1.16566 30694 ft 468 kts 341°
2026-05-08 16:17 44.63818 1.15246 30997 ft 470 kts 342°
2026-05-08 16:17 44.66950 1.13921 31307 ft 472 kts 342°
2026-05-08 16:18 44.70099 1.12587 31561 ft 474 kts 342°
2026-05-08 16:18 44.73266 1.11238 31899 ft 474 kts 342°
2026-05-08 16:18 44.76420 1.09890 32303 ft 473 kts 342°
2026-05-08 16:18 44.79562 1.08548 32708 ft 471 kts 342°
2026-05-08 16:19 44.82695 1.07213 33115 ft 470 kts 342°
2026-05-08 16:19 44.85816 1.05882 33514 ft 469 kts 342°
2026-05-08 16:19 44.88932 1.04548 33857 ft 468 kts 342°
2026-05-08 16:19 44.92034 1.03220 33927 ft 460 kts 342°
2026-05-08 16:20 44.98051 1.00643 33931 ft 448 kts 342°
2026-05-08 16:20 45.04003 0.98086 33933 ft 447 kts 342°
2026-05-08 16:21 45.09960 0.95512 33934 ft 447 kts 342°
2026-05-08 16:21 45.15912 0.92942 33919 ft 447 kts 342°
2026-05-08 16:22 45.21857 0.90371 33921 ft 446 kts 341°
2026-05-08 16:22 45.27790 0.87802 33928 ft 446 kts 341°
2026-05-08 16:23 45.33716 0.85231 33936 ft 445 kts 341°
2026-05-08 16:23 45.39638 0.82654 33940 ft 445 kts 341°
2026-05-08 16:24 45.45596 0.80323 33958 ft 445 kts 349°
2026-05-08 16:24 45.51714 0.78988 33963 ft 445 kts 349°
2026-05-08 16:25 45.57830 0.77657 33980 ft 444 kts 350°
2026-05-08 16:25 45.63936 0.76336 33971 ft 444 kts 349°
2026-05-08 16:26 45.70042 0.75015 33969 ft 443 kts 349°
2026-05-08 16:26 45.76133 0.73696 33965 ft 443 kts 349°
2026-05-08 16:27 45.82180 0.72374 33967 ft 442 kts 349°
2026-05-08 16:27 45.88259 0.71042 33966 ft 442 kts 349°
2026-05-08 16:28 45.94336 0.69714 33964 ft 442 kts 349°
2026-05-08 16:28 46.00450 0.68369 33967 ft 441 kts 349°
2026-05-08 16:29 46.06518 0.67030 33967 ft 441 kts 349°
2026-05-08 16:29 46.12576 0.65696 33964 ft 440 kts 349°
2026-05-08 16:30 46.18594 0.64368 33971 ft 440 kts 348°
2026-05-08 16:30 46.24676 0.63016 33965 ft 439 kts 348°
2026-05-08 16:31 46.30672 0.61680 33962 ft 439 kts 348°
2026-05-08 16:31 46.36705 0.60341 33963 ft 438 kts 348°
2026-05-08 16:32 46.42726 0.58991 33966 ft 437 kts 348°
2026-05-08 16:32 46.48736 0.57644 33966 ft 437 kts 348°
2026-05-08 16:33 46.54737 0.56299 33959 ft 436 kts 348°
2026-05-08 16:33 46.60726 0.54953 33974 ft 435 kts 348°
2026-05-08 16:34 46.66705 0.53615 33966 ft 434 kts 348°
2026-05-08 16:34 46.72662 0.52270 33965 ft 433 kts 348°
2026-05-08 16:35 46.78611 0.50926 33966 ft 432 kts 348°
2026-05-08 16:35 46.84557 0.49575 33964 ft 432 kts 348°
2026-05-08 16:36 46.90500 0.48221 33966 ft 432 kts 348°
2026-05-08 16:36 46.96433 0.46872 33964 ft 432 kts 348°
2026-05-08 16:37 47.02369 0.45570 33966 ft 433 kts 353°
2026-05-08 16:37 47.05393 0.45737 33954 ft 437 kts
2026-05-08 16:37 47.08290 0.47089 33968 ft 439 kts 20°
2026-05-08 16:38 47.13930 0.50539 33953 ft 440 kts 21°
2026-05-08 16:38 47.19569 0.54035 33964 ft 440 kts 21°
2026-05-08 16:39 47.25223 0.57520 33979 ft 440 kts 20°
2026-05-08 16:39 47.30862 0.60982 33985 ft 439 kts 20°
2026-05-08 16:40 47.36505 0.64460 33785 ft 440 kts 21°
2026-05-08 16:40 47.39323 0.66207 33519 ft 439 kts 21°
2026-05-08 16:40 47.42130 0.67953 33252 ft 438 kts 21°
2026-05-08 16:41 47.44940 0.69702 32981 ft 438 kts 21°
2026-05-08 16:41 47.47746 0.71451 32711 ft 438 kts 21°
2026-05-08 16:41 47.50501 0.73168 32215 ft 434 kts 21°
2026-05-08 16:42 47.56078 0.76639 31027 ft 430 kts 21°
2026-05-08 16:42 47.58800 0.78332 30440 ft 429 kts 21°
2026-05-08 16:42 47.61542 0.80035 29796 ft 428 kts 21°
2026-05-08 16:42 47.64279 0.81738 29166 ft 425 kts 21°
2026-05-08 16:43 47.66988 0.83429 28569 ft 421 kts 21°
2026-05-08 16:43 47.69693 0.85061 27944 ft 418 kts 19°
2026-05-08 16:43 47.72388 0.86632 27333 ft 415 kts 19°
2026-05-08 16:43 47.75078 0.88173 26735 ft 412 kts 19°
2026-05-08 16:44 47.77747 0.89696 26128 ft 410 kts 19°
2026-05-08 16:44 47.80404 0.91218 25542 ft 408 kts 19°
2026-05-08 16:44 47.83040 0.92742 24946 ft 406 kts 19°
2026-05-08 16:44 47.85661 0.94271 24355 ft 404 kts 19°
2026-05-08 16:45 47.88275 0.95805 23782 ft 401 kts 20°
2026-05-08 16:45 47.90864 0.97326 23177 ft 399 kts 20°
2026-05-08 16:45 47.93431 0.98836 22637 ft 395 kts 20°
2026-05-08 16:45 47.95971 1.00328 22141 ft 390 kts 20°
2026-05-08 16:46 47.98484 1.01800 21650 ft 386 kts 19°
2026-05-08 16:46 48.00972 1.03260 21198 ft 382 kts 20°
2026-05-08 16:46 48.03429 1.04706 20729 ft 378 kts 19°
2026-05-08 16:46 48.05864 1.06142 20244 ft 375 kts 19°
2026-05-08 16:47 48.08286 1.07567 19782 ft 372 kts 19°
2026-05-08 16:47 48.10692 1.08988 19303 ft 377 kts 19°
2026-05-08 16:47 48.13174 1.10447 18798 ft 386 kts 19°
2026-05-08 16:47 48.15676 1.11924 18277 ft 387 kts 19°
2026-05-08 16:48 48.18172 1.13407 17698 ft 385 kts 20°
2026-05-08 16:48 48.20651 1.14885 17172 ft 383 kts 20°
2026-05-08 16:48 48.23116 1.16358 16648 ft 380 kts 19°
2026-05-08 16:48 48.25561 1.17815 16114 ft 377 kts 19°
2026-05-08 16:49 48.27995 1.19263 15585 ft 375 kts 19°
2026-05-08 16:49 48.30414 1.20700 15068 ft 373 kts 19°
2026-05-08 16:49 48.32816 1.22130 14544 ft 370 kts 19°
2026-05-08 16:49 48.35203 1.23553 14018 ft 368 kts 19°
2026-05-08 16:50 48.37583 1.24955 13448 ft 366 kts 19°
2026-05-08 16:50 48.39926 1.26295 12907 ft 363 kts 19°
2026-05-08 16:50 48.42305 1.27636 12506 ft 356 kts 19°
2026-05-08 16:50 48.44548 1.28899 12377 ft 342 kts 18°
2026-05-08 16:51 48.46761 1.30144 12224 ft 329 kts 19°
2026-05-08 16:51 48.48834 1.31350 12093 ft 318 kts 23°
2026-05-08 16:51 48.50674 1.33098 11960 ft 310 kts 39°
2026-05-08 16:51 48.52141 1.35446 11673 ft 306 kts 53°
2026-05-08 16:52 48.53196 1.38218 11402 ft 306 kts 63°
2026-05-08 16:52 48.54240 1.40993 11099 ft 304 kts 57°
2026-05-08 16:52 48.55362 1.43691 11024 ft 303 kts 57°
2026-05-08 16:52 48.56491 1.46387 11032 ft 304 kts 57°
2026-05-08 16:53 48.58753 1.51791 11032 ft 304 kts 57°
2026-05-08 16:53 48.59518 1.53622 11031 ft 304 kts 57°
2026-05-08 16:53 48.60647 1.56325 11027 ft 304 kts 57°
2026-05-08 16:54 48.61774 1.59027 11035 ft 304 kts 57°
2026-05-08 16:54 48.62903 1.61733 11032 ft 304 kts 57°
2026-05-08 16:54 48.64031 1.64434 11171 ft 304 kts 57°
2026-05-08 16:54 48.65162 1.67141 11245 ft 307 kts 57°
2026-05-08 16:55 48.66479 1.69631 10985 ft 301 kts 44°
2026-05-08 16:55 48.67986 1.71828 10739 ft 301 kts 42°
2026-05-08 16:55 48.69489 1.73966 10488 ft 300 kts 42°
2026-05-08 16:55 48.71034 1.76147 10210 ft 299 kts 42°
2026-05-08 16:56 48.72559 1.78283 9922 ft 298 kts 42°
2026-05-08 16:56 48.74069 1.80391 9609 ft 296 kts 42°
2026-05-08 16:56 48.75580 1.82492 9286 ft 294 kts 42°
2026-05-08 16:56 48.77077 1.84575 8895 ft 291 kts 42°
2026-05-08 16:57 48.78551 1.86619 8510 ft 289 kts 42°
2026-05-08 16:57 48.79978 1.88779 8103 ft 287 kts 46°
2026-05-08 16:57 48.81337 1.90984 7719 ft 285 kts 47°
2026-05-08 16:57 48.82678 1.93168 7358 ft 281 kts 47°
2026-05-08 16:58 48.84012 1.95332 6984 ft 279 kts 47°
2026-05-08 16:58 48.85331 1.97462 6617 ft 275 kts 47°
2026-05-08 16:58 48.86618 1.99533 6258 ft 272 kts 47°
2026-05-08 16:58 48.87905 2.01595 6121 ft 258 kts 47°
2026-05-08 16:59 48.89103 2.03508 5915 ft 249 kts 47°
2026-05-08 16:59 48.90280 2.05411 5581 ft 246 kts 49°
2026-05-08 16:59 48.91363 2.07396 5244 ft 243 kts 52°
2026-05-08 16:59 48.92425 2.09416 5007 ft 239 kts 52°
2026-05-08 17:00 48.93448 2.11380 4981 ft 241 kts 52°
2026-05-08 17:00 48.94489 2.13374 4982 ft 238 kts 52°
2026-05-08 17:00 48.95496 2.15302 4982 ft 221 kts 52°
2026-05-08 17:00 48.96453 2.17051 4980 ft 212 kts 50°
2026-05-08 17:01 48.97163 2.18955 4981 ft 204 kts 76°
2026-05-08 17:01 48.97333 2.21050 4867 ft 199 kts 85°
2026-05-08 17:01 48.97445 2.23159 4632 ft 199 kts 85°
2026-05-08 17:01 48.97562 2.25260 4369 ft 199 kts 84°
2026-05-08 17:02 48.97680 2.27360 4100 ft 199 kts 84°
2026-05-08 17:02 48.97798 2.29459 3835 ft 198 kts 84°
2026-05-08 17:02 48.97915 2.31542 3572 ft 197 kts 84°
2026-05-08 17:02 48.98032 2.33615 3326 ft 195 kts 84°
2026-05-08 17:03 48.98146 2.35623 3142 ft 187 kts 84°
2026-05-08 17:03 48.98252 2.37584 2846 ft 185 kts 84°
2026-05-08 17:03 48.98360 2.39525 2574 ft 183 kts 84°
2026-05-08 17:03 48.98469 2.41437 2336 ft 180 kts 84°
2026-05-08 17:04 48.98571 2.43308 2081 ft 172 kts 84°
2026-05-08 17:04 48.98663 2.45029 1891 ft 152 kts 84°
2026-05-08 17:04 48.98745 2.46550 1684 ft 138 kts 84°
2026-05-08 17:04 48.98821 2.47975 1471 ft 132 kts 84°
2026-05-08 17:05 48.98899 2.49356 1301 ft 131 kts 84°
2026-05-08 17:05 48.98974 2.50732 1152 ft 131 kts 83°
2026-05-08 17:05 48.99051 2.52108 964 ft 130 kts 84°
2026-05-08 17:05 48.99124 2.53471 806 ft 129 kts 83°
2026-05-08 17:06 48.99198 2.54816 598 ft 128 kts 83°
2026-05-08 17:06 48.99271 2.56168 435 ft 128 kts 83°
2026-05-08 17:06 48.99345 2.57480 355 ft 113 kts 85°
2026-05-08 17:06 48.99396 2.58438 353 ft 72 kts 85°
2026-05-08 17:07 48.99426 2.59040 351 ft 36 kts 85°
2026-05-08 17:07 48.99502 2.59363 360 ft 23 kts 64°
2026-05-08 17:07 48.99564 2.59568 359 ft 19 kts 73°
2026-05-08 17:07 48.99636 2.59696 357 ft 14 kts
2026-05-08 17:08 48.99696 2.59689 358 ft 0 kts 351°
2026-05-08 17:08 48.99745 2.59681 358 ft 15 kts 355°
2026-05-08 17:09 48.99885 2.59665 354 ft 24 kts 356°
2026-05-08 17:09 49.00056 2.59641 357 ft 26 kts 355°
2026-05-08 17:09 49.00240 2.59622 354 ft 27 kts 356°
2026-05-08 17:09 49.00434 2.59605 354 ft 29 kts 356°
2026-05-08 17:10 49.00635 2.59579 354 ft 30 kts 354°
2026-05-08 17:10 49.00840 2.59548 354 ft 30 kts 355°
2026-05-08 17:10 49.00970 2.59529 354 ft 15 kts 347°
2026-05-08 17:10 49.01000 2.59392 355 ft 16 kts 268°
2026-05-08 17:11 49.00990 2.59187 355 ft 23 kts 266°
2026-05-08 17:11 49.00952 2.58930 362 ft 27 kts 262°
2026-05-08 17:11 49.00941 2.58650 354 ft 24 kts 265°
2026-05-08 17:11 49.00928 2.58381 358 ft 24 kts 263°
2026-05-08 17:12 49.00909 2.58111 359 ft 27 kts 266°
2026-05-08 17:12 49.00897 2.57854 354 ft 19 kts 265°
2026-05-08 17:12 49.00881 2.57733 359 ft 11 kts 237°
2026-05-08 17:12 49.00819 2.57717 361 ft 9 kts 186°
2026-05-08 17:13 49.00797 2.57699 358 ft 0 kts 214°
2026-05-08 17:13 49.00790 2.57692 356 ft 6 kts 214°
2026-05-08 17:13 49.00741 2.57690 362 ft 7 kts 140°
2026-05-08 17:13 49.00713 2.57748 360 ft 6 kts 126°
2026-05-08 17:14 49.00704 2.57767 354 ft 0 kts 126°